When you browse on this site, cookies collect data to enhance your experience and personalize the content and advertising you see.
Visit our Privacy Policy to learn more. By continuing to use the site, you agree to this use of cookies and data.
  • In Hungary
  • List of Countries
  • For 7 days
  • Water Temperature
  • Weather Map
  • News
  • Weather Widgets
  • user-avatar
    Login

    Hourly Weather Tyldesley

    Today, 25 August, Sunday

    Time Temperature Precipitation Wind Pressure Humidity
    00:00 +19°C° 0 mm 2 mps 758 mmHg 68%
    01:00 +19°C° 0 mm 2 mps 758 mmHg 68%
    02:00 +19°C° 0 mm 2 mps 758 mmHg 69%
    03:00 +19°C° 0 mm 2 mps 758 mmHg 70%
    04:00 +18°C° 0 mm 2 mps 758 mmHg 70%
    05:00 +18°C° 0 mm 2 mps 758 mmHg 71%
    06:00 +19°C° 0 mm 2 mps 758 mmHg 75%
    07:00 +20°C° 0 mm 2 mps 758 mmHg 71%
    08:00 +23°C° 0 mm 2 mps 758 mmHg 66%
    09:00 +25°C° 0 mm 2 mps 758 mmHg 62%
    10:00 +26°C° 0 mm 2 mps 758 mmHg 57%
    11:00 +27°C° 0 mm 3 mps 758 mmHg 53%
    12:00 +28°C° 0 mm 3 mps 758 mmHg 49%
    13:00 +29°C° 0 mm 3 mps 758 mmHg 49%
    14:00 +29°C° 0 mm 3 mps 758 mmHg 50%
    15:00 +29°C° 0 mm 3 mps 758 mmHg 50%
    16:00 +28°C° 0 mm 3 mps 758 mmHg 56%
    17:00 +27°C° 0 mm 2 mps 758 mmHg 62%
    18:00 +25°C° 0 mm 2 mps 758 mmHg 67%
    19:00 +24°C° 0 mm 2 mps 758 mmHg 70%
    20:00 +22°C° 0 mm 1 mps 758 mmHg 74%
    21:00 +21°C° 0 mm 1 mps 759 mmHg 77%
    22:00 +21°C° 0 mm 1 mps 759 mmHg 78%
    23:00 +20°C° 0 mm 1 mps 759 mmHg 79%

    Tomorrow, 26 August, Monday

    Time Temperature Precipitation Wind Pressure Humidity
    00:00 +20°C° 0 mm 1 mps 759 mmHg 80%
    01:00 +20°C° 0 mm 1 mps 759 mmHg 82%
    02:00 +19°C° 0 mm 1 mps 759 mmHg 83%
    03:00 +19°C° 0 mm 1 mps 759 mmHg 85%
    04:00 +18°C° 0 mm 1 mps 758 mmHg 86%
    05:00 +18°C° 0 mm 1 mps 758 mmHg 87%
    06:00 +18°C° 0 mm 1 mps 758 mmHg 88%
    07:00 +20°C° 0 mm 1 mps 758 mmHg 82%
    08:00 +21°C° 0 mm 1 mps 758 mmHg 77%
    09:00 +21°C° 0 mm 0 mps 758 mmHg 71%
    10:00 +24°C° 0 mm 1 mps 758 mmHg 67%
    11:00 +25°C° 0 mm 1 mps 758 mmHg 63%
    12:00 +26°C° 0 mm 2 mps 758 mmHg 59%
    13:00 +26°C° 0 mm 2 mps 758 mmHg 61%
    14:00 +26°C° 0 mm 2 mps 757 mmHg 63%
    15:00 +26°C° 0 mm 3 mps 757 mmHg 64%
    16:00 +25°C° 0 mm 3 mps 757 mmHg 68%
    17:00 +24°C° 0 mm 2 mps 757 mmHg 72%
    18:00 +23°C° 0 mm 2 mps 757 mmHg 76%
    19:00 +21°C° 0 mm 2 mps 757 mmHg 79%
    20:00 +21°C° 0 mm 1 mps 757 mmHg 81%
    21:00 +20°C° 0 mm 1 mps 757 mmHg 83%
    22:00 +19°C° 0 mm 1 mps 757 mmHg 84%
    23:00 +19°C° 0 mm 1 mps 757 mmHg 84%

    Day after tomorrow, 27 August, Tuesday

    Time Temperature Precipitation Wind Pressure Humidity
    00:00 +19°C° 0 mm 1 mps 757 mmHg 85%
    01:00 +17°C° 0 mm 0 mps 757 mmHg 86%
    02:00 +16°C° 0 mm 0 mps 757 mmHg 86%
    03:00 +16°C° 0 mm 0 mps 756 mmHg 87%
    04:00 +16°C° 0 mm 0 mps 756 mmHg 87%
    05:00 +16°C° 0 mm 0 mps 756 mmHg 87%
    06:00 +16°C° 0 mm 0 mps 756 mmHg 87%
    07:00 +18°C° 0 mm 0 mps 756 mmHg 82%
    08:00 +19°C° 0 mm 0 mps 756 mmHg 77%
    09:00 +21°C° 0 mm 0 mps 756 mmHg 72%
    10:00 +22°C° 0 mm 0 mps 755 mmHg 67%
    11:00 +26°C° 0 mm 1 mps 755 mmHg 62%
    12:00 +27°C° 0 mm 1 mps 755 mmHg 57%
    13:00 +27°C° 0.2 mm 1 mps 755 mmHg 58%
    14:00 +27°C° 0.2 mm 2 mps 754 mmHg 58%
    15:00 +27°C° 0.2 mm 2 mps 754 mmHg 59%
    16:00 +26°C° 0.9 mm 3 mps 753 mmHg 65%
    17:00 +24°C° 0.9 mm 3 mps 753 mmHg 72%
    18:00 +22°C° 0.9 mm 3 mps 753 mmHg 78%
    19:00 +20°C° 1.1 mm 3 mps 753 mmHg 81%
    20:00 +19°C° 1.1 mm 3 mps 753 mmHg 83%
    21:00 +18°C° 1.1 mm 2 mps 754 mmHg 86%
    22:00 +17°C° 0.4 mm 2 mps 753 mmHg 85%
    23:00 +17°C° 0.4 mm 2 mps 753 mmHg 83%

    28 August, Wednesday

    Time Temperature Precipitation Wind Pressure Humidity
    00:00 +16°C° 0.4 mm 1 mps 753 mmHg 82%
    01:00 +16°C° 0 mm 1 mps 753 mmHg 83%
    02:00 +15°C° 0 mm 1 mps 753 mmHg 84%
    03:00 +15°C° 0 mm 1 mps 753 mmHg 84%
    04:00 +15°C° 0 mm 1 mps 753 mmHg 85%
    05:00 +15°C° 0 mm 1 mps 753 mmHg 85%
    06:00 +15°C° 0 mm 2 mps 753 mmHg 85%
    07:00 +16°C° 0 mm 2 mps 753 mmHg 83%
    08:00 +17°C° 0 mm 3 mps 753 mmHg 81%
    09:00 +17°C° 0 mm 3 mps 753 mmHg 78%
    10:00 +17°C° 0.2 mm 3 mps 753 mmHg 79%
    11:00 +17°C° 0.2 mm 2 mps 753 mmHg 79%
    12:00 +18°C° 0.2 mm 1 mps 752 mmHg 79%
    13:00 +18°C° 0.9 mm 1 mps 752 mmHg 83%
    14:00 +16°C° 0.9 mm 1 mps 752 mmHg 86%
    15:00 +16°C° 0.9 mm 1 mps 752 mmHg 90%
    16:00 +15°C° 0.7 mm 2 mps 752 mmHg 90%
    17:00 +14°C° 0.7 mm 3 mps 752 mmHg 89%
    18:00 +13°C° 0.7 mm 4 mps 752 mmHg 89%
    19:00 +13°C° 0.1 mm 3 mps 752 mmHg 87%
    20:00 +13°C° 0.1 mm 3 mps 753 mmHg 86%
    21:00 +12°C° 0.1 mm 3 mps 753 mmHg 84%
    22:00 +12°C° 0 mm 3 mps 754 mmHg 84%
    23:00 +12°C° 0 mm 3 mps 754 mmHg 83%

    29 August, Thursday

    Time Temperature Precipitation Wind Pressure Humidity
    00:00 +11°C° 0 mm 3 mps 754 mmHg 83%
    01:00 +11°C° 0 mm 3 mps 755 mmHg 83%
    02:00 +11°C° 0 mm 3 mps 755 mmHg 84%
    03:00 +12°C° 0 mm 2 mps 755 mmHg 84%
    04:00 +12°C° 0 mm 2 mps 755 mmHg 84%
    05:00 +12°C° 0 mm 2 mps 756 mmHg 85%
    06:00 +12°C° 0 mm 2 mps 756 mmHg 85%
    07:00 +12°C° 0 mm 3 mps 756 mmHg 81%
    08:00 +14°C° 0 mm 4 mps 756 mmHg 76%
    09:00 +15°C° 0 mm 4 mps 757 mmHg 72%
    10:00 +16°C° 0 mm 5 mps 757 mmHg 67%
    11:00 +17°C° 0 mm 5 mps 757 mmHg 62%
    12:00 +17°C° 0 mm 6 mps 757 mmHg 57%
    13:00 +19°C° 0 mm 5 mps 757 mmHg 57%
    14:00 +19°C° 0 mm 5 mps 757 mmHg 57%
    15:00 +19°C° 0 mm 5 mps 757 mmHg 57%
    16:00 +17°C° 0 mm 5 mps 757 mmHg 61%
    17:00 +17°C° 0 mm 5 mps 757 mmHg 66%
    18:00 +17°C° 0 mm 4 mps 757 mmHg 70%
    19:00 +16°C° 0 mm 5 mps 757 mmHg 72%
    20:00 +15°C° 0 mm 5 mps 758 mmHg 74%
    21:00 +14°C° 0 mm 5 mps 758 mmHg 77%
    22:00 +14°C° 0 mm 5 mps 758 mmHg 78%
    23:00 +14°C° 0 mm 4 mps 758 mmHg 80%

    30 August, Friday

    Time Temperature Precipitation Wind Pressure Humidity
    00:00 +14°C° 0 mm 4 mps 758 mmHg 81%
    01:00 +14°C° 0 mm 4 mps 758 mmHg 84%
    02:00 +14°C° 0 mm 4 mps 758 mmHg 86%
    03:00 +13°C° 0 mm 4 mps 758 mmHg 89%
    04:00 +13°C° 0 mm 4 mps 758 mmHg 89%
    05:00 +13°C° 0 mm 4 mps 758 mmHg 89%
    06:00 +13°C° 0 mm 3 mps 758 mmHg 90%
    07:00 +14°C° 0 mm 4 mps 758 mmHg 85%
    08:00 +15°C° 0 mm 4 mps 758 mmHg 80%
    09:00 +17°C° 0 mm 5 mps 758 mmHg 75%
    10:00 +17°C° 0 mm 5 mps 758 mmHg 73%
    11:00 +19°C° 0 mm 5 mps 758 mmHg 70%
    12:00 +20°C° 0 mm 5 mps 758 mmHg 67%
    13:00 +20°C° 0 mm 5 mps 758 mmHg 67%
    14:00 +20°C° 0 mm 5 mps 757 mmHg 66%
    15:00 +20°C° 0 mm 5 mps 757 mmHg 66%
    16:00 +20°C° 0 mm 5 mps 757 mmHg 68%
    17:00 +19°C° 0 mm 5 mps 757 mmHg 70%
    18:00 +19°C° 0 mm 4 mps 757 mmHg 72%
    19:00 +18°C° 0 mm 4 mps 757 mmHg 74%
    20:00 +17°C° 0 mm 4 mps 757 mmHg 75%
    21:00 +15°C° 0 mm 4 mps 757 mmHg 77%
    22:00 +15°C° 0 mm 4 mps 756 mmHg 78%
    23:00 +14°C° 0 mm 4 mps 756 mmHg 80%
    Show more